Satellite-Ground Cal/Val Region Overpasses Predictions

Prediction of Satellite NPP Overpassing Cal/Val Region: PacNW

Region Location: (Latitude: 10.00, Longitude: 139.50) to (Latitude: 22.70, Longitude: 165.60).

Table of predicted overpasses for the next 14.0 days since TLE Epoch: 10/21/2023
Interval Starting Time Starting Location Ending Time Ending Location
1 10/21/2023 02:46:14 ( 10.02, 158.33) 10/21/2023 02:49:49 ( 22.65, 155.33)
2 10/21/2023 15:18:08 ( 22.67, 155.55) 10/21/2023 15:21:43 ( 10.04, 152.55)
3 10/22/2023 02:27:13 ( 10.01, 163.08) 10/22/2023 02:30:49 ( 22.69, 160.07)
4 10/22/2023 14:59:06 ( 22.68, 160.30) 10/22/2023 15:02:41 ( 10.06, 157.30)
5 10/23/2023 02:10:54 ( 19.57, 165.59) 10/23/2023 02:11:47 ( 22.68, 164.83)
6 10/23/2023 03:49:41 ( 10.00, 142.46) 10/23/2023 03:53:13 ( 22.45, 139.51)
7 10/23/2023 14:40:05 ( 22.69, 165.06) 10/23/2023 14:43:41 ( 10.01, 162.05)
8 10/23/2023 16:21:35 ( 22.68, 139.68) 10/23/2023 16:21:47 ( 21.98, 139.51)
9 10/24/2023 03:30:41 ( 10.05, 147.21) 10/24/2023 03:34:16 ( 22.67, 144.21)
10 10/24/2023 16:02:34 ( 22.69, 144.44) 10/24/2023 16:06:10 ( 10.01, 141.43)
11 10/25/2023 03:11:39 ( 10.05, 151.96) 10/25/2023 03:15:14 ( 22.67, 148.96)
12 10/25/2023 15:43:32 ( 22.70, 149.19) 10/25/2023 15:47:08 ( 10.02, 146.18)
13 10/26/2023 02:52:38 ( 10.04, 156.72) 10/26/2023 02:56:13 ( 22.66, 153.72)
14 10/26/2023 15:24:32 ( 22.64, 153.93) 10/26/2023 15:28:07 ( 10.02, 150.94)
15 10/27/2023 02:33:36 ( 10.04, 161.47) 10/27/2023 02:37:11 ( 22.66, 158.47)
16 10/27/2023 15:05:30 ( 22.65, 158.69) 10/27/2023 15:09:05 ( 10.02, 155.69)
17 10/28/2023 02:15:22 ( 12.80, 165.59) 10/28/2023 02:18:10 ( 22.66, 163.23)
18 10/28/2023 03:56:05 ( 10.04, 140.85) 10/28/2023 03:57:44 ( 15.85, 139.50)
19 10/28/2023 14:46:29 ( 22.65, 163.44) 10/28/2023 14:50:04 ( 10.03, 160.44)
20 10/29/2023 03:37:03 ( 10.04, 145.60) 10/29/2023 03:40:38 ( 22.66, 142.61)
21 10/29/2023 14:30:33 ( 11.73, 165.59) 10/29/2023 14:31:02 ( 10.03, 165.20)
22 10/29/2023 16:08:57 ( 22.64, 142.82) 10/29/2023 16:12:32 ( 10.02, 139.82)
23 10/30/2023 03:18:02 ( 10.04, 150.36) 10/30/2023 03:21:37 ( 22.66, 147.36)
24 10/30/2023 15:49:55 ( 22.70, 147.59) 10/30/2023 15:53:31 ( 10.02, 144.58)
25 10/31/2023 02:59:00 ( 10.04, 155.11) 10/31/2023 03:02:35 ( 22.67, 152.11)
26 10/31/2023 15:30:53 ( 22.69, 152.34) 10/31/2023 15:34:29 ( 10.01, 149.33)
27 11/01/2023 02:39:59 ( 10.05, 159.87) 11/01/2023 02:43:34 ( 22.67, 156.87)
28 11/01/2023 15:11:52 ( 22.69, 157.10) 11/01/2023 15:15:28 ( 10.01, 154.08)
29 11/02/2023 02:20:58 ( 10.06, 164.62) 11/02/2023 02:24:33 ( 22.68, 161.62)
30 11/02/2023 14:52:50 ( 22.68, 161.85) 11/02/2023 14:56:26 ( 10.00, 158.84)
31 11/03/2023 03:43:25 ( 10.01, 144.01) 11/03/2023 03:47:01 ( 22.69, 141.00)
32 11/03/2023 14:34:59 ( 18.56, 165.59) 11/03/2023 14:37:24 ( 10.05, 163.60)
